Theta_e
344 353 361 364 367 366 365 362 361 360 359 361 360 360 362 362 362 362 361 360 360 360 360 358 357 356 355 354 355 358 360 360 360 359 358 359 362 361 361 360 358 354 358
348 353 361 364 367 366 364 363 362 361 360 361 360 360 362 362 362 362 361 360 360 359 358 357 357 357 356 354 353 355 358 359 359 360 358 359 359 359 360 357 357 355 358
347 353 357 364 366 365 364 363 362 361 361 361 361 361 362 362 362 363 361 361 360 358 358 357 357 356 356 355 355 355 354 358 358 358 355 349 351 357 358 358 357 357 356
348 349 355 364 364 365 364 362 361 361 361 361 361 362 361 362 363 363 362 362 362 358 357 357 357 356 356 355 355 355 356 353 354 355 341 344 349 356 356 356 356 355 356
344 349 356 364 364 364 363 362 361 361 361 361 362 362 361 362 362 362 361 362 363 359 359 358 357 358 356 356 356 355 355 356 352 351 336 336 340 350 353 354 354 353 353
344 349 359 363 363 363 362 361 361 361 361 362 362 361 360 361 361 361 361 359 361 360 359 360 358 361 360 359 359 359 358 357 355 349 337 343 341 353 354 352 351 351 352
346 351 354 362 362 362 361 360 361 362 362 361 362 360 360 360 360 360 359 359 359 359 358 358 358 357 357 357 357 357 357 356 349 340 341 343 346 352 350 349 350 350 350
347 350 353 360 361 360 361 361 361 361 361 361 361 360 360 360 359 358 358 357 357 357 357 358 357 355 354 355 354 356 357 356 353 344 342 343 350 351 348 348 348 348 347
346 348 350 353 357 360 361 361 361 361 361 360 359 359 359 359 358 357 357 356 357 357 357 357 357 356 355 356 357 358 358 359 349 343 342 345 353 352 349 349 349 348 348
344 346 347 349 351 352 355 361 361 361 360 360 360 359 358 358 357 356 354 355 356 357 357 357 357 357 356 356 356 357 358 354 349 350 344 347 354 352 351 350 350 349 349
342 343 344 347 347 347 349 355 359 359 360 360 359 358 355 347 348 349 352 354 357 357 357 357 357 357 356 356 357 356 350 348 350 349 347 355 355 353 352 351 350 350 350
337 339 342 343 344 344 350 350 350 352 354 352 351 350 345 341 341 345 349 357 357 357 356 356 356 356 357 348 348 355 347 347 349 348 350 357 357 354 354 352 351 351 350
336 337 338 340 341 342 346 348 347 349 348 347 346 347 343 342 341 343 346 348 347 353 346 350 350 351 346 345 342 345 345 341 343 345 347 355 358 356 354 354 354 353 354
335 335 337 337 337 337 346 345 344 346 345 344 345 345 341 340 339 343 344 343 342 341 341 340 341 343 342 345 341 345 344 337 338 338 345 356 357 360 357 355 355 355 356
336 335 336 336 335 337 342 341 342 343 344 344 344 346 344 341 341 341 343 341 340 339 337 338 338 341 341 337 338 346 347 341 334 339 347 357 357 357 358 358 357 356 356
338 335 337 336 336 341 340 338 341 342 343 343 344 345 345 342 342 339 335 339 337 337 338 336 340 340 340 336 338 342 348 345 343 342 349 352 356 356 358 357 356 355 357
336 337 335 337 337 340 341 338 339 341 342 342 343 344 345 343 342 339 335 336 338 340 337 341 338 336 339 342 338 339 344 343 339 345 349 349 350 353 354 354 354 354 353
341 338 338 340 337 336 341 340 338 339 338 340 341 344 345 343 344 341 337 338 340 338 336 339 339 336 335 336 338 346 347 344 347 348 346 345 343 345 350 350 349 349 349
340 342 336 337 336 337 340 342 341 339 338 338 341 345 345 344 345 342 338 337 341 337 337 336 334 335 335 342 343 343 343 344 343 346 344 341 339 338 340 346 345 344 345
342 340 341 342 338 337 338 341 340 339 340 341 340 347 345 345 344 340 341 338 339 343 338 336 336 335 332 336 341 340 341 339 339 338 338 338 335 334 334 334 334 337 340
341 340 341 341 343 342 337 336 336 337 336 339 340 342 347 344 343 340 339 340 342 341 336 336 337 338 335 337 332 329 332 336 335 335 335 336 335 335 332 329 328 328 331
333 335 335 340 342 344 342 339 339 340 338 338 342 341 342 345 344 343 339 337 336 340 341 338 338 334 335 334 328 324 320 323 330 332 331 333 333 334 333 329 326 324 323
330 331 331 330 330 330 335 341 341 341 339 337 338 338 336 335 340 344 343 339 338 341 339 339 339 336 332 332 332 326 318 316 319 328 329 329 329 330 334 332 326 323 320
326 327 327 327 326 326 326 329 333 331 331 332 330 330 328 329 329 336 341 342 340 340 339 338 342 336 334 331 330 333 327 325 317 316 326 330 330 330 327 326 325 320 318
321 320 321 320 318 324 322 322 325 325 326 330 331 330 329 331 330 334 337 333 334 337 336 336 336 337 337 332 330 330 327 326 323 318 314 321 324 329 323 320 320 318 316
319 318 318 316 316 318 318 318 319 320 320 321 322 327 327 329 329 330 334 330 330 330 328 334 334 334 334 335 332 332 330 326 324 320 316 321 323 317 319 317 317 316 313
Wind_Speed
8 12 19 18 19 20 19 19 17 16 15 15 16 15 14 15 15 16 16 16 15 14 15 15 14 14 14 15 16 17 18 18 18 18 18 18 16 13 16 18 17 14 16
17 12 18 18 20 20 19 18 16 15 14 15 15 14 14 14 14 15 15 14 14 15 15 14 13 13 13 13 15 15 15 16 17 17 18 19 20 19 19 19 17 14 15
18 13 15 17 21 20 19 17 16 15 14 14 14 13 13 13 13 14 14 14 14 14 13 13 12 12 11 11 12 12 11 10 13 17 18 9 10 18 19 18 18 16 16
18 12 12 18 21 21 19 18 16 15 15 13 13 13 13 12 12 12 12 14 13 14 13 12 11 10 8 10 10 9 8 7 4 3 4 8 11 16 17 17 17 17 17
15 12 13 19 20 21 20 17 16 15 14 13 12 14 13 11 10 10 10 12 12 13 13 11 9 8 6 7 7 7 5 4 2 1 5 8 6 12 15 15 12 16 16
15 12 15 16 20 21 20 17 16 15 14 13 13 13 12 11 10 9 9 9 10 11 11 10 8 6 5 5 4 4 3 4 4 2 7 10 7 13 15 15 15 15 15
16 13 13 16 18 20 21 17 16 15 13 14 13 13 11 10 10 9 8 8 9 9 9 8 6 6 5 3 2 2 1 3 3 7 8 8 7 13 14 14 14 15 14
19 14 12 16 16 18 21 18 16 15 13 13 12 12 11 9 9 8 8 7 8 8 8 8 6 6 4 2 4 3 3 5 6 6 7 8 12 13 15 14 13 14 14
19 16 12 10 12 15 19 17 16 14 13 12 11 11 9 9 8 7 7 7 6 7 8 8 6 6 5 6 2 2 3 8 5 8 7 6 15 14 14 14 12 12 13
18 16 13 10 8 8 10 18 17 16 14 13 11 10 9 8 8 7 8 7 7 7 8 8 8 8 8 8 4 2 6 9 5 6 7 1 16 16 14 12 13 11 12
16 17 14 12 9 8 7 12 15 17 16 14 11 11 8 5 6 7 7 9 8 8 9 8 9 9 8 5 1 4 11 3 5 5 2 10 13 17 14 12 12 11 10
20 19 17 15 12 12 10 9 7 9 7 7 6 6 5 6 6 8 8 11 10 9 9 9 10 8 3 1 1 7 2 4 7 6 4 8 9 14 14 12 11 11 10
22 18 19 18 15 14 11 7 5 5 5 5 8 8 7 6 4 4 4 4 4 8 4 6 5 4 6 5 4 5 5 2 2 4 4 8 8 10 11 11 11 10 9
22 22 21 20 17 14 10 9 8 7 7 6 8 10 7 4 5 6 5 5 5 4 6 5 4 5 5 7 10 9 7 3 5 3 3 10 9 10 11 11 11 11 10
18 20 19 19 16 13 14 10 9 8 7 8 8 9 7 7 7 7 6 5 5 4 5 5 4 5 5 7 8 13 5 6 6 4 3 12 9 10 10 12 12 12 13
5 11 17 19 14 16 13 13 11 10 10 9 9 9 12 6 5 7 6 6 5 5 5 4 5 7 8 6 5 11 16 8 7 2 3 5 10 10 10 8 8 5 9
4 7 15 18 14 15 16 14 10 10 11 9 8 11 12 7 7 6 4 4 5 6 7 3 4 4 5 7 4 7 12 13 10 9 8 7 8 13 13 12 14 10 10
3 8 11 12 11 10 14 12 9 8 7 9 7 9 13 8 7 6 4 4 4 4 4 5 4 0 4 5 5 11 11 10 10 10 9 7 5 5 11 16 15 11 12
10 3 7 7 8 8 7 6 6 7 4 5 7 8 14 10 7 6 4 4 3 2 4 2 2 4 4 6 7 7 7 8 9 9 11 9 7 5 5 14 17 13 12
10 9 8 6 8 7 4 3 2 2 1 2 4 5 11 11 8 6 4 4 3 3 3 5 6 3 4 8 6 7 7 5 7 8 9 8 7 6 5 6 6 8 14
13 12 10 8 6 4 2 2 1 1 1 1 2 4 8 9 8 8 6 5 3 4 5 5 4 6 3 8 7 4 5 4 6 5 6 8 10 10 7 6 5 4 7
12 12 13 12 8 4 2 2 2 2 2 2 1 5 3 8 9 11 10 9 7 3 4 4 4 3 4 6 5 4 4 1 2 5 5 7 9 9 10 8 7 6 5
12 13 12 12 11 10 9 5 5 3 4 4 5 6 10 12 11 10 12 11 9 6 4 4 5 6 4 4 7 7 3 5 3 3 5 5 7 6 8 11 10 9 7
10 10 11 12 12 11 13 8 8 5 3 3 2 2 5 10 14 16 14 8 9 4 6 5 5 5 5 6 0 4 3 7 5 2 2 6 6 8 7 8 11 10 9
7 7 8 9 11 11 11 10 6 7 3 3 3 4 4 6 6 10 12 9 12 10 5 6 5 6 5 5 5 3 2 1 3 5 3 4 2 7 7 7 11 10 9
7 7 7 8 9 9 10 10 9 7 5 3 6 4 5 5 6 10 8 11 5 5 7 12 6 6 5 6 4 4 6 6 5 4 3 7 11 4 7 5 9 9 8
Wind_Direction
121 136 130 124 126 125 126 127 126 124 120 113 106 101 97 95 95 97 98 101 103 106 108 109 110 109 107 109 110 109 109 112 113 109 97 83 77 109 108 95 92 90 88
130 137 130 125 130 128 126 127 126 125 120 113 109 108 105 104 104 105 106 106 109 111 112 112 109 106 107 111 109 107 112 117 116 108 93 84 82 91 93 94 93 90 91
126 135 131 127 126 126 126 127 128 124 120 118 117 116 111 111 111 112 113 115 115 116 116 112 109 106 104 100 97 98 105 113 124 111 99 88 88 92 93 97 96 95 92
127 131 133 129 127 128 128 130 129 128 125 126 127 119 115 115 116 118 121 121 124 126 123 120 117 113 109 99 94 90 93 96 107 28 76 97 94 93 96 97 98 92 91
124 129 138 133 132 130 129 131 130 131 130 134 130 122 122 121 120 119 121 125 133 135 134 133 132 125 121 103 96 100 102 111 144 94 87 101 92 98 102 96 94 93 89
119 126 135 133 136 134 132 133 133 134 138 141 127 127 127 130 125 123 126 134 134 130 131 137 141 141 142 121 121 128 141 178 211 218 129 108 99 101 100 101 100 98 97
128 134 136 131 135 134 133 138 138 139 142 132 134 132 133 130 130 128 132 138 137 135 137 141 151 159 149 141 179 127 320 11 316 104 123 114 109 113 109 108 109 107 102
132 134 140 136 138 142 135 142 141 140 142 137 137 135 135 135 133 138 141 146 145 151 153 153 175 173 163 155 254 10 340 18 18 103 125 118 124 122 118 115 113 113 110
131 134 136 140 139 140 136 143 142 143 141 138 140 138 143 144 145 148 154 157 167 168 169 162 187 194 197 201 229 271 334 42 37 116 121 131 133 129 126 125 122 120 118
131 133 139 142 141 135 147 147 146 147 144 143 146 148 153 154 161 166 175 178 190 187 195 178 196 211 212 213 181 216 32 64 87 91 118 187 140 137 137 138 134 135 129
139 143 142 148 153 147 142 154 150 154 148 152 156 162 165 166 182 188 195 200 197 207 210 197 207 215 225 255 84 95 87 67 61 69 107 163 154 144 145 148 144 144 142
150 153 152 153 165 160 160 154 151 163 155 156 158 173 185 198 186 194 195 185 195 210 218 213 209 218 193 177 207 110 83 109 91 69 60 176 166 148 149 156 156 157 156
157 155 160 158 167 168 154 160 163 162 167 175 179 181 204 206 210 200 168 185 194 214 219 215 192 202 192 118 73 83 108 60 167 113 76 212 179 158 154 165 166 171 173
160 159 163 163 165 170 151 163 173 172 178 183 194 190 193 205 195 182 185 194 199 198 212 215 173 193 166 144 111 106 109 269 188 122 131 191 183 168 169 181 177 187 191
159 163 164 162 168 151 159 172 171 182 186 188 192 199 204 205 200 181 193 186 200 200 208 216 158 175 142 151 136 112 154 201 289 92 163 180 179 177 188 194 190 196 201
113 154 154 166 171 148 164 175 180 177 188 190 197 201 209 210 216 188 182 187 199 203 208 239 160 164 164 155 149 130 156 177 161 134 145 151 130 116 116 134 123 153 201
190 168 159 168 172 153 167 177 183 185 182 195 197 202 207 204 194 203 199 201 201 193 157 126 146 247 133 117 122 170 152 165 161 168 147 118 109 115 109 109 102 101 111
86 174 148 166 178 163 164 178 187 193 178 195 191 193 205 212 203 191 215 222 221 152 177 156 147 63 105 148 158 126 144 155 161 151 130 129 138 131 122 118 109 112 104
36 27 141 166 177 168 149 156 169 190 187 197 200 186 197 200 197 175 194 248 282 220 166 174 166 158 126 116 120 113 116 139 134 134 135 142 143 139 134 133 125 121 110
34 27 13 118 173 219 146 128 152 195 210 206 219 176 181 193 186 181 187 224 235 303 220 160 170 183 170 141 117 104 117 136 138 148 144 140 142 130 135 126 127 131 125
29 28 15 353 114 121 67 93 356 189 247 299 294 203 200 189 185 179 187 203 194 218 236 195 159 164 77 131 111 81 66 110 127 142 149 157 154 149 155 149 148 139 130
31 28 22 12 3 41 109 191 154 191 220 213 284 321 257 203 199 186 186 198 200 190 255 214 161 156 120 182 128 116 146 142 155 179 171 172 164 159 161 166 153 140 128
33 35 29 29 30 29 15 23 358 1 353 345 12 21 13 17 337 230 192 184 192 166 204 222 183 163 160 245 173 141 129 207 149 177 195 187 164 166 178 175 165 147 140
45 40 42 36 35 27 25 35 56 66 27 24 25 8 346 6 358 338 294 194 175 176 177 191 218 181 145 176 285 246 157 146 158 165 203 194 184 188 175 162 157 148 146
76 59 52 49 43 38 43 41 37 56 9 332 305 297 290 324 323 327 325 47 35 359 296 196 245 241 191 169 168 165 216 176 140 136 182 180 190 200 175 156 152 149 153
100 92 78 64 55 46 50 48 46 47 31 6 324 298 278 260 297 308 347 310 299 269 349 325 296 264 253 244 234 195 181 174 187 152 139 184 190 179 171 156 147 149 149